Regional Weather Roundup
Issued by NWS Upton, NY

Home | Current Version | Previous Version | Text Only | Print | Product List | Glossary On
Versions: 1 2 3 4 5 6 7 8 9 10 11 12 13 14 15 16 17 18 19 20 21 22 23 24 25 26 27 28 29 30 31 32 33 34 35 36 37 38 39 40 41 42 43 44 45 46 47 48 49 50
000
ASUS41 KOKX 231505
RWROKX

REGIONAL WEATHER ROUNDUP
NATIONAL WEATHER SERVICE NEW YORK NY
1100 AM EDT SAT AUG 23 2014

NOTE: "FAIR" INDICATES FEW OR NO CLOUDS BELOW 12,000 FEET WITH NO
SIGNIFICANT WEATHER AND/OR OBSTRUCTIONS TO VISIBILITY.

NYZ071-072-176-178-NJZ106-104-231600-
NEW YORK CITY METRO AREA


CITY           SKY/WX    TMP DP  RH WIND       PRES   REMARKS
CENTRAL PARK   CLOUDY    70  60  70 VRB6      30.13R
LAGUARDIA APRT PTSUNNY   71  60  68 NE14      30.10R
KENNEDY INTL   PTSUNNY   72  59  63 E8        30.10R
NEWARK/LIBERTY CLOUDY    70  60  70 NE8       30.09R
BRNX BOT. GARD   N/A     68  59  73 NE8       30.12R
TETERBORO      CLOUDY    71  59  65 E7        30.09R
$$

NYZ177-179-078>081-231600-
LONG ISLAND NEW YORK

CITY           SKY/WX    TMP DP  RH WIND       PRES   REMARKS
FARMINGDALE    PTSUNNY   70  60  70 NE10      30.09S
ISLIP          PTSUNNY   71  60  68 E8        30.08S
SHIRLEY        PTSUNNY   71  59  65 VRB6      30.11R
WESTHAMPTON    CLOUDY    71  59  65 NE14      30.11S
MONTAUK POINT    N/A     71  60  68 NE10      30.11R
$$

NYZ052-065-067-231600-
HUDSON VALLEY

CITY           SKY/WX    TMP DP  RH WIND       PRES   REMARKS
WHITE PLAINS   PTSUNNY   68  59  73 E6        30.11R
NEWBURGH       NOT AVBL
MONTGOMERY     CLOUDY    68  59  73 E7        30.12R
POUGHKEEPSIE   CLOUDY    70  58  65 E8        30.11S
ALBANY         CLOUDY    69  58  67 NE7       30.14S
$$

NJZ001-105-106-008-010-013-015-019>022-104-231600-
NEW JERSEY

CITY           SKY/WX    TMP DP  RH WIND       PRES   REMARKS
NEWARK/LIBERTY CLOUDY    70  60  70 NE8       30.09R
TETERBORO      CLOUDY    71  59  65 E7        30.09R
CALDWELL       CLOUDY    70  58  65 E9        30.10R
MORRISTOWN     CLOUDY    70  61  73 E7        30.11R
SOMERVILLE     LGT RAIN  70  62  76 E5        30.08S
LINDEN         CLOUDY    75  62  63 E9        30.11R
SUSSEX         CLOUDY    72  59  63 NE9       30.11R
ANDOVER          N/A     68  58  70 E3        30.11S
TRENTON        CLOUDY    70  61  73 E8        30.07S
MILLVILLE      PTSUNNY   75  61  61 E13       30.05R
ATLANTIC CITY  PTSUNNY   73  63  70 NE13G21   30.06R
WRIGHTSTOWN    LGT RAIN  70  64  83 E5        30.05S
TOMS RIVER     PTSUNNY   72  64  78 E8        30.07S
BELMAR         CLOUDY    70  61  73 E10       30.09R
$$

PAZ047>061-062-071-231600-
EASTERN PENNSYLVANIA

CITY           SKY/WX    TMP DP  RH WIND       PRES   REMARKS
PHILADELPHIA   RAIN      69  64  84 NE7       30.08R
ALLENTOWN      LGT RAIN  68  63  84 E7        30.10S
SCRANTON       LGT RAIN  65  59  81 CALM      30.10S
$$

CTZ002-004>006-009-010-012-RIZ004-006-007-MAZ004-011-015-231600-
SOUTHERN NEW ENGLAND
 IN CT

CITY           SKY/WX    TMP DP  RH WIND       PRES   REMARKS
BRADLEY INTL   PTSUNNY   71  58  63 N8        30.12R
HARTFORD       CLOUDY    69  59  70 VRB5      30.12R
DANBURY        CLOUDY    68  57  68 E8        30.13S
WTRBRY/OXFORD  CLOUDY    66  55  68 NE8       30.14S
BRIDGEPORT     CLOUDY    71  59  65 E12       30.11S
MERIDEN        CLOUDY    71  58  63 MISG      30.12R
NEW HAVEN      CLOUDY    74  58  57 E8        30.11S
CHESTER        PTSUNNY   68  57  68 NE6       30.12S
GROTON         MOSUNNY   72  58  61 E14       30.09S
WILLIMANTIC    PTSUNNY   71  56  58 NE13      30.12S

 IN RI

CITY           SKY/WX    TMP DP  RH WIND       PRES   REMARKS
PROVIDENCE     PTSUNNY   71  57  61 NE15      30.12R
BLOCK ISLAND   SUNNY     70  59  68 NE9       30.11R
WESTERLY       MOSUNNY   70  57  63 NE8       30.11R

 IN MA

CITY           SKY/WX    TMP DP  RH WIND       PRES   REMARKS
BOSTON         PTSUNNY   71  57  61 NE14      30.12S
WORCESTER      CLOUDY    64  55  72 NE7       30.15S
WESTFIELD      CLOUDY    70  57  63 E6        30.13S
PROVINCETOWN   CLOUDY    70  63  78 MISG      30.11S
NANTUCKET      MOSUNNY   70  61  73 NE18G24   30.07S
$$

ANZ330-335-338-340-345-350-353-355-231600-
COASTAL MARINE OBSERVATIONS


STATION/POSITION TIME  SKY/WX   TEMP    WIND        PRES    VSBY  WAVE
                                AIR SEA DIR/SP/G                  HT/PER
                 (UTC)          (F)     (DEG/KT/KT) (MB)    (MI)  (FT/S)
NY HARB ENTRANCE NOT AVBL
4S FIRE IS       NOT AVBL
23SW MTP         1500            68 70              1018.3          5/ 7
HUDSON CANYON    1500            70 72   60/ 17/ 19 1017.2          6/ 7
EXECUTION ROCKS  1500            69 73   60/ 16/ 19   N/A
WESTERN LI SOUND 1500            68      70/ 14/ 17   N/A           2/ 4
CENTRAL LI SOUND 1400            67 72   80/  8/ 10   N/A           1/ 3
EASTERN LI SOUND 1400            69 68   60/ 10/ 12   N/A
ROBBINS REEF     1500            69      40/ 11/ 12   N/A
$$


>>>>>>>>>>>>>>>>>>>>>>>>>>>> KEY <<<<<<<<<<<<<<<<<<<<<<<<<<<
>                                                          <
>     SKY/WX - SKY CONDITION/PRESENT WEATHER               <
>     TMP    - TEMPERATURE IN FAHRENHEIT                   <
>     DP     - DEWPOINT IN FAHRENHEIT                      <
>     RH     - RELATIVE HUMIDITY IN PERCENT                <
>     WIND   - DIRECTION AND SPEED IN MPH                  <
>     PRES   - MEAN SEA LEVEL PRESSURE IN INCHES OF HG     <
>     WCI    - WIND CHILL INDEX                            <
>     VSB    - VISIBILITY IN MILES                         <
>     HX     - HEAT INDEX                                  <
>     TC     - TEMPERATURE IN CELSIUS                      <
>     VRB    - VARIABLE WIND DIRECTION                     <
>                                                          <
>>>>>>>>>>>>>>>>>>>>>>>>>>>> KEY <<<<<<<<<<<<<<<<<<<<<<<<<<<





USA.gov is the U.S. government's official web portal to all federal, state and local government web resources and services.